Weather History for Huntsville, TX

Change the Weather History Date:

Tuesday, August 26, 2014

  Actual Average (KCXO) Record (KCXO)
Temperature  
Mean Temperature 84 °F -  
Max Temperature 96 °F 91 °F 100 °F (1999)
Min Temperature 73 °F 70 °F 62 °F (1997)
Cooling Degree Days 19    
Growing Degree Days 34 (Base 50)    
Moisture  
Dew Point 69 °F    
Average Humidity 62    
Maximum Humidity 85    
Minimum Humidity 40    
Precipitation  
Precipitation 0.00 in - - ()
Sea Level Pressure  
Sea Level Pressure 29.97 in    
Wind  
Wind Speed 3 mph (ESE)    
Max Wind Speed 6 mph    
Max Gust Speed -    
Visibility 10 miles    
Events      
Averages and records for this station are not official NWS values.
T = Trace of Precipitation, MM = Missing Value Source: NWS Daily Summary

Daily Weather History Graph

Daily Weather History Graph

Search for Another Location

Airport:

Trip Planner

Search our weather history database for the weather conditions in past years. The results will help you decide how hot, cold, wet, or windy it might be!

Date:

Astronomy

Aug. 26, 2014 Rise Set
Actual Time 6:55 AM CDT 7:52 PM CDT
Civil Twilight 6:30 AM CDT 8:17 PM CDT
Nautical Twilight 6:01 AM CDT 8:46 PM CDT
Astronomical Twilight 5:30 AM CDT 9:16 PM CDT
Moon 7:49 AM CDT (8/26) 8:23 PM CDT (8/26)
Length of Visible Light 13h 46m
Length of Day
12h 57m
New Moon, 1% of the Moon is Illuminated
Aug 26
New Moon
Sep 2
First Quarter
Sep 8
Full
Sep 15
Last Quarter
Sep 24
New

Hourly Weather History & Observations

Time (CDT) Temp. Heat Index Dew Point Humidity Pressure Visibility Wind Dir Wind Speed Gust Speed Precip Events Conditions
12:53 AM 82.0 °F 84.9 °F 68.0 °F 62% 29.93 in 10.0 mi South 4.6 mph - N/A   Clear
1:53 AM 80.1 °F 82.7 °F 68.0 °F 67% 29.93 in 10.0 mi South 3.5 mph - N/A   Clear
2:53 AM 77.0 °F - 69.1 °F 76% 29.94 in 10.0 mi Calm Calm - N/A   Clear
4:53 AM 75.0 °F - 69.1 °F 82% 29.96 in 10.0 mi Calm Calm - N/A   Partly Cloudy
5:53 AM 73.9 °F - 69.1 °F 85% 29.96 in 10.0 mi Calm Calm - N/A   Clear
7:53 AM 75.9 °F - 70.0 °F 82% 29.99 in 10.0 mi Calm Calm - N/A   Clear
8:53 AM 80.1 °F 83.6 °F 71.1 °F 74% 30.01 in 10.0 mi East 3.5 mph - N/A   Clear
10:53 AM 86.0 °F 91.5 °F 71.1 °F 61% 30.02 in 10.0 mi Variable 3.5 mph - N/A   Scattered Clouds
11:53 AM 88.0 °F 92.9 °F 70.0 °F 55% 30.02 in 10.0 mi Variable 3.5 mph - N/A   Mostly Cloudy
12:53 PM 91.0 °F 96.6 °F 70.0 °F 50% 30.00 in 10.0 mi Variable 3.5 mph - N/A   Partly Cloudy
1:53 PM 91.9 °F 97.4 °F 70.0 °F 48% 29.98 in 10.0 mi ENE 3.5 mph - N/A   Partly Cloudy
2:53 PM 95.0 °F 99.5 °F 68.0 °F 41% 29.96 in 10.0 mi East 4.6 mph - N/A   Scattered Clouds
4:53 PM 95.0 °F 99.0 °F 66.9 °F 40% 29.93 in 10.0 mi East 5.8 mph - N/A   Partly Cloudy
5:53 PM 93.0 °F 96.4 °F 66.9 °F 42% 29.92 in 10.0 mi East 4.6 mph - N/A   Clear
6:53 PM 91.0 °F 95.6 °F 69.1 °F 48% 29.93 in 10.0 mi East 3.5 mph - N/A   Clear
7:53 PM 87.1 °F 91.3 °F 69.1 °F 55% 29.94 in 10.0 mi Variable 3.5 mph - N/A   Clear
8:53 PM 84.0 °F 87.8 °F 69.1 °F 61% 29.95 in 10.0 mi Calm Calm - 0.00 in   Clear
9:53 PM 82.0 °F 85.5 °F 69.1 °F 65% 29.97 in 10.0 mi Calm Calm - N/A   Clear
10:53 PM 81.0 °F 84.1 °F 69.1 °F 67% 29.98 in 10.0 mi Calm Calm - N/A   Clear
11:53 PM 78.1 °F - 69.1 °F 74% 30.00 in 10.0 mi Calm Calm - N/A   Scattered Clouds